Погода в Серове

Погода в Серове : погода сейчас, прогноз погоды и архив. Всё, что Вы хотите узнать о погоде в Серове!

Поиск расширенной информации на нашем сайте:

Другие новости

Новости СМИ2

Главная страница сайта

Новости сайта

02.10.2013

Напоминаем, что на нашем новом сайте вы можете получить высокодетализированные прогнозы погоды по пунктам России, СНГ и мира (включающие важные для авиации метеовеличины, такие как направление и скорость ветра, видимость, явления погоды, количество и форма облачности, нижняя и верхняя граница облачности), а также ознакомиться с разнообразными материалами по авиационной метеорологии и подборкой полезных ссылок на эту тему.

Сайт Метеоцентр.Азия посвящён разработке технологий оптимизации авиаметеорологического обслуживания, включая проектирование и перспективное создание нескольких автоматизированных авиаметеорологических систем:
- система выпуска высокодетальных прогностических карт явлений погоды для нижнего воздушного пространства по России и ближнему зарубежью;
- система верификации прогнозов TAF (выпускаемых синоптиками официальных АМСГ РФ и ближнего зарубежья) и AUTOTAF (выпускаемых сайтом Метеоцентр.Азия) - выявление ошибок, онлайн-сопоставление с фактической погодой METAR, автоматическое внесение коррективов в прогнозы при резком отклонении фактической погоды от прогноза, подсчёт оправдываемости прогнозов по элементам и в целом;
- система обработки, анализа и отображения авиаметеорологической информации для применения провайдерами метеорологической информации.


Погода в Серове - сегодня

Время (UTC), дата Ветер
(°,м/с) 
Видим.   Явления Облачность Т
(°С)
Тd
(°С)
f(%) Тe
(°С)
Pmin
(гПа)
dP
(гПа)
Po
(мм)
O2
(г/м3)
Тmin Tmax R s Состояние
почвы
21 19.02.17 280 (З) 3{11}  10 км    ясно 
-11.2 -17.1 62 -14  999.2  2.9  737  311           
00 20.02.17 280 (З) 10 км    ясно 
-10.9 -16.7 62 -15  1000.8  1.6  739  311           
03 20.02.17 260 (З) 10 км    8/8 600 м 
[Sc]
-13.1 -17.5 70 -17  1001.5  0.5  739  314  -13.1      44  равномерный
мокрый или
старый снег
100% 
06 20.02.17 230 (ЮЗ) 20000 м    9/9 600 м 
[Sc]
-9.6 -15.5 62 -11  999.4  -1.8  738  309  -13.6         
09 20.02.17 130 (ЮВ) 20000 м  слаб. снег  10/10 300 м 
[Frnb]
-8.2 -12.6 71 -11  995.8  -3.4  735  306           
12 20.02.17 140 (ЮВ) 20000 м  слаб. снег  10/10 300 м 
[Sc]
-7.6 -9.8 84 -9  992.7  -3  733  305           
15 20.02.17 110 (В) 10 км  в посл. час снег  10/10 300 м 
[Frnb]
-7.8 -9.4 88 -9  989.6  -3.1  730  304    -7.5  0.6     
18 20.02.17 110 (В) 2000 м  слаб. снег  10/10 300 м 
[Frnb]
-6.8 -8.2 90 -8  985.9  -3.5  728  302           
21 20.02.17 210 (ЮЗ) 10 км  {снег}  10/10 300 м 
[Frnb]
-1.8 -3.8 86 -4  983.5  -2.1  726  295           
00 21.02.17 210 (ЮЗ) 10 км  {снег}  8/8 600 м 
[Sc]
-0.5 -3.1 83 -1  983.8  0.4  727  294           
03 21.02.17 250 (З) 10 км    5/5 600 м 
[Sc]
-3.1 -4.9 87 -3  985.7  1.6  728  297  -7.8    47  равномерный
сухой снег
100% 
06 21.02.17 190 (Ю) 20000 м    9/6 300 м кучево-дожд., верхняя 
[Cb calv|Ci fib]
+0.9 -5.2 64 -1  987.4  1.9  729  293           
09 21.02.17 240 (ЮЗ) 3{10}  20000 м    10/10 300 м кучево-дожд. 
[Cb calv]
+1.8 -6.6 54 989.1  1.7  730  293           
12 21.02.17 210 (ЮЗ) 20000 м    10/10 300 м 
[Frnb]
+1.4 -4.7 64 +2  990.7  1.5  732  294           
15 21.02.17 100 (В) 10 км    10/10 300 м 
[Frnb]
+0.3 -2.4 82 +1  991.8  732  295    +2.5       
18 21.02.17 210 (ЮЗ) 10 км    10/10 600 м 
[Sc]
+0.4 -3.1 77 992.3  0.5  733  295           
21 21.02.17 190 (Ю) 10 км    10/10 600 м 
[Sc]
+0 -3.2 79 -2  992.2  0.1  733  296           
00 22.02.17 190 (Ю) 2000 м  слаб. снег  10/10 300 м 
[Frnb]
-0.7 -2.6 87 -3  992.2  0.1  733  296           
03 22.02.17 180 (Ю) 2000 м  слаб. снег  10/10 300 м 
[Frnb]
-0.7 -2.6 87 -3  992.4  0.2  733  296  -1    0.0  46  равномерный
сухой снег
100% 
06 22.02.17 190 (Ю) 6-11{11}  20000 м  {снег}  10/10 600 м 
[Sc]
+1.6 -1.6 79 -2  993  0.7  733  294           
09 22.02.17 200 (Ю) 5{11}  20000 м    10/10 600 м 
[Sc]
+3 -2.1 69 +1  994.2  1.3  734  293           
12 22.02.17 210 (ЮЗ) 4{13}  20000 м    10/10 600 м 
[Sc]
+3 -1.8 71 +1  995.7  1.5  735  293           
15 22.02.17 210 (ЮЗ) 4{10}  10 км    10/10 600 м 
[Sc]
+2 -1.4 78 997.8  1.8  737  295    +3.3  0.0     
18 22.02.17 200 (Ю) 10 км    5/5 600 м 
[Sc]
+1.6 -1.9 78 999.1  1.2  738  296           
21 22.02.17 200 (Ю) 10 км    3/3 600 м 
[Sc]
+1.2 -1.6 82 -1  999.9  0.8  738  296           
Время (UTC), дата Ветер
(°,м/с) 
Видим.   Явления Облачность Т
(°С)
Тd
(°С)
f(%) Тe
(°С)
Pmin
(гПа)
dP
(гПа)
Po
(мм)
O2
(г/м3)
Тmin Tmax R s Состояние
почвы

Для получения пояснительной информации подведите курсор к названию столбца.

ПОГОДА в Серове - архив

Всё, что Вы хотите узнать о погоде в Серове - удобно и подробно!

Выберите нужную дату (начиная с 1 января 2015* года) и нажмите кнопку "Найти".
Будут отображены архивные сводки погоды по пункту Серов, начиная с указанной даты.


Отображать данные в формате CSV (для использования в таблицах Excel)


Внимание! Наш архив погоды предназначен исключительно для личного некоммерческого использования в познавательных целях. Если Вам необходимы официальные справки о состоянии погоды (для производственных, юридических, коммерческих и т.п. целей), обращайтесь в органы Росгидромета.

*Примечание: данная дата относится к архиву по метеостанциям СССР (Россия, СНГ, Балтия).
Архив по метеостанциям Зарубежной Европы и Азии (кроме Китая) хранится 10 дней, по другим регионам земного шара (Китай, Африка, Америка, Австралия, Океания) - 1 день.

Серов - район местоположения метеостанции


Название, широта, долгота, высота метеостанции:
Серов 59.6°ш. 60.5°д. 130 м над ур. моря [Российская Федерация]

Дополнительная информация

В oтличие oт бoльшинства пoгoдных сайтoв мы публикуем пoдрoбную метеoинфoрмацию в детальнoм прoфессиoнальнoм фoрмате.

Характеристики температуры и влажнoсти вoздуха измеряются на высoте 2 м в тени вдали oт зданий и деревьев.
Скoрoсть ветра измеряется на высoте 10 м (на урoвне рoста челoвека скoрoсть ветра ниже в 1.5-2 раза). Если метеoстанция нахoдится в гoрoде или в лесу, тo скoрoсть ветра занижена на 2-4 м/с пo сравнению с oткрытым местoм. Скoрoсть ветра над акватoриями крупных рек и oзёр, а также на вершинах хoлмoв на 2-5 м/с выше, чем в oбычных услoвиях.
Атмoсфернoе давление в разных тoчках местнoсти мoжет значительнo oтличаться oт давления на метеoстанции, в зависимoсти oт услoвий рельефа (при пoдъёме на 10 м давление пoнижается примернo на 1 мм рт.ст.).